Weather History for KPGA - July, 2013

Change the Weather History Date:

Tuesday, July 23, 2013

  Actual Average Record
Temperature  
Mean Temperature 84 °F -  
Max Temperature 93 °F 93 °F 106 °F (2014)
Min Temperature 75 °F 68 °F 60 °F (1958)
Cooling Degree Days 19    
Growing Degree Days 34 (Base 50)    
Moisture  
Dew Point 54 °F    
Average Humidity 35    
Maximum Humidity 52    
Minimum Humidity 16    
Precipitation  
Precipitation 0.00 in - - ()
Sea Level Pressure  
Sea Level Pressure 29.85 in    
Wind  
Wind Speed 7 mph (WNW)    
Max Wind Speed 17 mph    
Max Gust Speed 30 mph    
Visibility 10 miles    
Events      
Averages and records for this station are not official NWS values.
T = Trace of Precipitation, MM = Missing Value Source: NWS Daily Summary

Daily Weather History Graph

Daily Weather History Graph

Search for Another Location

Airport or City:

Trip Planner

Search our weather history database for the weather conditions in past years. The results will help you decide how hot, cold, wet, or windy it might be!

Date:

Astronomy

Jul. 23, 2013 Rise Set
Actual Time 5:24 AM MST 7:39 PM MST
Civil Twilight 4:54 AM MST 8:09 PM MST
Nautical Twilight 4:18 AM MST 8:45 PM MST
Astronomical Twilight 3:39 AM MST 9:24 PM MST
Moon 8:14 PM MST (7/23) 6:34 AM MST (7/23)
Length of Visible Light 15h 14m
Length of Day
14h 15m
Full, 98% of the Moon is Illuminated
Jul 23
Full
Jul 29
Last Quarter
Aug 6
New
Aug 14
First Quarter
Aug 20
Full

Hourly Weather History & Observations

Time (MST) Temp. Heat Index Dew Point Humidity Pressure Visibility Wind Dir Wind Speed Gust Speed Precip Events Conditions
12:53 AM 78.1 °F - 57.0 °F 48% 29.86 in 10.0 mi South 17.3 mph 29.9 mph N/A   Clear
1:53 AM 77.0 °F - 57.0 °F 50% 29.86 in 10.0 mi SSW 10.4 mph 20.7 mph N/A   Clear
2:53 AM 77.0 °F - 55.9 °F 48% 29.87 in 10.0 mi SW 5.8 mph - N/A   Clear
3:53 AM 75.0 °F - 55.9 °F 51% 29.87 in 10.0 mi South 4.6 mph - N/A   Clear
4:53 AM 75.9 °F - 57.0 °F 52% 29.86 in 10.0 mi West 3.5 mph - N/A   Partly Cloudy
5:53 AM 78.1 °F - 57.9 °F 50% 29.87 in 10.0 mi North 4.6 mph - N/A   Clear
6:53 AM 78.1 °F - 57.0 °F 48% 29.87 in 10.0 mi NNW 8.1 mph - N/A   Clear
7:53 AM 81.0 °F 80.8 °F 55.9 °F 42% 29.88 in 10.0 mi North 10.4 mph - N/A   Clear
8:53 AM 82.0 °F 81.6 °F 55.9 °F 41% 29.88 in 10.0 mi Calm Calm - N/A   Clear
9:53 AM 82.9 °F 82.0 °F 55.0 °F 38% 29.89 in 10.0 mi South 3.5 mph - N/A   Clear
10:53 AM 84.0 °F 82.9 °F 55.0 °F 37% 29.89 in 10.0 mi WSW 3.5 mph - N/A   Mostly Cloudy
11:53 AM 84.9 °F 83.6 °F 55.0 °F 36% 29.88 in 10.0 mi Calm Calm - N/A   Clear
12:53 PM 89.1 °F 86.9 °F 54.0 °F 30% 29.87 in 10.0 mi NW 4.6 mph - N/A   Clear
1:53 PM 89.1 °F 87.1 °F 55.0 °F 31% 29.86 in 10.0 mi North 5.8 mph - N/A   Clear
2:53 PM 91.9 °F - 51.1 °F 25% 29.81 in 10.0 mi NW 5.8 mph - N/A   Clear
3:53 PM 91.0 °F - 48.9 °F 23% 29.80 in 10.0 mi Variable 5.8 mph - N/A   Clear
4:53 PM 91.0 °F - 50.0 °F 24% 29.79 in 10.0 mi NNW 3.5 mph - N/A   Clear
5:53 PM 91.9 °F - 46.0 °F 21% 29.78 in 10.0 mi WNW 6.9 mph - N/A   Clear
6:53 PM 91.0 °F - 48.0 °F 23% 29.79 in 10.0 mi West 4.6 mph - N/A   Clear
7:53 PM 89.1 °F - 48.9 °F 25% 29.80 in 10.0 mi NW 4.6 mph - N/A   Clear
8:53 PM 88.0 °F - 51.1 °F 28% 29.81 in 10.0 mi NW 4.6 mph - N/A   Clear
9:53 PM 84.9 °F - 52.0 °F 32% 29.85 in 10.0 mi NNE 5.8 mph - N/A   Clear
10:53 PM 84.9 °F 83.3 °F 54.0 °F 34% 29.84 in 10.0 mi NW 5.8 mph - N/A   Clear
11:53 PM 84.0 °F 82.6 °F 54.0 °F 35% 29.84 in 10.0 mi WNW 5.8 mph - 0.00 in   Clear